Regional Weather Roundup
Issued by NWS

Home | Current Version | Previous Version | Graphics & Text | Print | Product List | Glossary On
Versions: 1 2 3 4 5 6 7 8 9 10 11 12 13 14 15 16 17 18 19 20 21 22 23 24 25 26 27 28 29 30 31 32 33 34 35 36 37 38 39 40 41 42 43 44 45 46 47 48 49 50
000
ASUS43 KIND 291709
RWRIN

WEATHER ROUNDUP FOR INDIANA
NATIONAL WEATHER SERVICE INDIANAPOLIS IN
100 PM EDT SUN MAR 29 2015

NOTE: "FAIR" INDICATES FEW OR NO CLOUDS BELOW 12,000 FEET WITH NO
SIGNIFICANT WEATHER AND/OR OBSTRUCTIONS TO VISIBILITY.

* - STATION DOES NOT REPORT WEATHER SUCH AS PRECIPITATION OR FOG.

+ - STATION NOT QUALITY CONTROLLED BY THE NATIONAL WEATHER SERVICE.
    USE DATA WITH CAUTION...ESPECIALLY DEWPOINT AND RELATIVE
    HUMIDITY OBSERVATIONS.

INZ001>003-010>013-019-020-291800-
NORTHWEST INDIANA

CITY           SKY/WX    TMP DP  RH WIND       PRES   REMARKS
GARY /AIRPORT/ LGT RAIN  41  10  28 S21G39    30.00F
KNOX *+          N/A     39 -15   9 S20G29    30.05F
LA PORTE +     CLOUDY    41  18  39 S25G32    30.04F
MICHIGAN CITY+ CLOUDY    37  10  32 S20G33    30.01F
MONTICELLO +   CLOUDY    42  18  38 SW13G25   30.09F
RENSSELAER +   CLOUDY    41  23  48 S20G26    30.06F
VALPARAISO     CLOUDY    38  18  44 S21G28    30.04F

$$

LMZ046-743>745-291800-
SOUTHERN LAKE MICHIGAN

STATION/POSITION TIME  TEMP WIND        PRES
                       AIR  DIR/SP/G
                 (UTC) (F)  (DEG/KT/KT) (MB)
BURNS HARBOR     1700   39  180/ 24/ 31 1016.3S
MICHIGAN CITY    1700   38  160/ 25/ 31   N/A

$$

INZ004-005-014>016-021>024-291800-
NORTH CENTRAL INDIANA

CITY           SKY/WX    TMP DP  RH WIND       PRES   REMARKS
ELKHART        PTSUNNY   41  10  28 S15G28    30.05F
GOSHEN         PTSUNNY   42  17  36 S20G30    30.07F
LOGANSPORT +   PTSUNNY   41  21  45 S20       30.11F
PERU/GRISSOM   PTSUNNY   43  19  38 S21       30.10F
ROCHESTER +    PTSUNNY   43  19  39 S16G26    30.09F
SOUTH BEND     CLOUDY    43  13  29 S23G35    30.04F
WARSAW +       PTSUNNY   41  19  42 S13G22    30.08F

$$

INZ006>009-017-018-025>027-291800-
NORTHEAST INDIANA

CITY           SKY/WX    TMP DP  RH WIND       PRES   REMARKS
ANGOLA *+      SUNNY     39  21  48 S20       30.09F
AUBURN +       MOSUNNY   41  18  38 S15G23    30.13F
FORT WAYNE     CLOUDY    41  22  46 S22G29    30.14F
HUNTINGTON +   MOSUNNY   41  13  31 S15G22    30.13F

$$

INZ028-029-035-036-043>045-051>053-291800-
WEST CENTRAL INDIANA

CITY           SKY/WX    TMP DP  RH WIND       PRES   REMARKS
CRAWFORDSVL +  MOSUNNY   40  10  28 S20G25    30.12F
GREENCASTLE +  MOSUNNY   43   7  22 S13G20    30.17S
LAFAYETTE      PTSUNNY   42  14  32 S18G33    30.11F
TERRE HAUTE    MOSUNNY   44  22  41 S23G32    30.16F

$$

INZ030>032-037>040-046>048-054>057-064-065-291800-
CENTRAL INDIANA

CITY           SKY/WX    TMP DP  RH WIND       PRES   REMARKS
CP ATTERBURY + MOSUNNY   45  21  39 SE16G22   30.19F
COLUMBUS       SUNNY     43  12  28 S23       30.22
FRANKFORT +    MOSUNNY   43  22  42 S15G23    30.14F
GREENWOOD *+   SUNNY     45  16  31 S17       30.18F
INDIANAPOLIS   PTSUNNY   46  15  28 S16G24    30.15F
-EAGLE CREEK   SUNNY     44  15  31 S10G23    30.15F
KOKOMO *+        N/A     41  23  48 S21       30.14F
MARION +       MOSUNNY   41  19  41 S21G26    30.15F
MT COMFORT *+  MOSUNNY   41   9  26 S22G28    30.18F
SHELBYVILLE    SUNNY     45  20  36 S20G29    30.18F
ZIONSVILLE +   MOSUNNY   43  17  35 S18G24    30.15F

$$

INZ033-034-041-042-049-050-058-059-291800-
EAST CENTRAL INDIANA

CITY           SKY/WX    TMP DP  RH WIND       PRES   REMARKS
MUNCIE         MOSUNNY   40  18  41 S18G25    30.15F

$$

INZ060-061-067>069-081>083-085>088-291800-
SOUTHWEST INDIANA

CITY           SKY/WX    TMP DP  RH WIND       PRES   REMARKS
EVANSVILLE     SUNNY     50  21  32 S15G24    30.25F
HUNTINGBURG *+ SUNNY     46  21  36 S15G21    30.24F
WASHINGTON +   SUNNY     46  19  33 S15       30.20F

$$

INZ062-063-066-070>080-084-089>092-291800-
SOUTH CENTRAL AND SOUTHEAST INDIANA

CITY           SKY/WX    TMP DP  RH WIND       PRES   REMARKS
BLOOMINGTON    SUNNY     45  16  31 SW12G22   30.19F
NORTH VERNON + MOSUNNY   45  16  31 S13G20    30.25F
SEYMOUR +      MOSUNNY   46  23  39 S14       30.23F

$$




USA.gov is the U.S. government's official web portal to all federal, state and local government web resources and services.